Location: Chatou
(48.8898°N, 2.1586°E)
Time: 17:36:27
(UTC+00:00)

Cosmos 1745 Rocket - Pass Details

Date: 03 February 2023
Orbit: 952 x 998 km, 83.0° (Epoch: 29 March)

Event Time Altitude Azimuth Distance (km) Brightness Sun altitude
Rises 19:13:14 0° 349° (N) 3,701 7.2 -23.4°
Reaches altitude 10° 19:15:46 10° 348° (NNW) 2,742 6.5 -23.8°
Maximum altitude 19:22:02 76° 264° (W) 1,004 4.1 -24.9°
Drops below altitude 10° 19:28:11 10° 180° (S) 2,691 6.3 -25.9°
Sets 19:30:39 0° 179° (S) 3,628 6.9 -26.3°
